| time (UTC) | temp F | wind direction | speed knots | gust knots | rain 1hr in | rain 24hr in | rain mn in | humidity % | barometer mb |
| 20260505051349 | 59 | 131 | 0.0 | 0.0 | 0.00 | 0.00 | 0.00 | 70 | 1010.9 |
| 20260505050847 | 59 | 131 | 0.0 | 0.0 | 0.00 | 0.00 | 0.00 | 69 | 1010.8 |
| 20260505050346 | 60 | 131 | 0.0 | 0.9 | 0.00 | 0.00 | 0.00 | 68 | 1010.8 |
| 20260505041313 | 63 | 138 | 0.0 | 0.0 | 0.00 | 0.00 | 0.00 | 60 | 1011.0 |
| 20260505040810 | 63 | 285 | 0.0 | 0.9 | 0.00 | 0.00 | 0.00 | 60 | 1011.2 |
| 20260505040307 | 63 | 143 | 0.0 | 0.0 | 0.00 | 0.00 | 0.00 | 60 | 1010.9 |
| 20260505035804 | 63 | 147 | 0.0 | 0.0 | 0.00 | 0.00 | 0.00 | 61 | 1011.1 |
| 20260505035259 | 63 | 148 | 0.0 | 0.0 | 0.00 | 0.00 | 0.00 | 60 | 1011.1 |
| 20260505034757 | 63 | 154 | 0.0 | 0.0 | 0.00 | 0.00 | 0.00 | 59 | 1011.0 |
| 20260505034254 | 63 | 135 | 0.0 | 0.9 | 0.00 | 0.00 | 0.00 | 60 | 1010.9 |
| 20260505033750 | 64 | 135 | 0.0 | 0.0 | 0.00 | 0.00 | 0.00 | 58 | 1010.8 |
| 20260505033248 | 64 | 144 | 0.0 | 0.0 | 0.00 | 0.00 | 0.00 | 58 | 1011.0 |
| 20260505032746 | 64 | 144 | 0.0 | 0.0 | 0.00 | 0.00 | 0.00 | 57 | 1010.8 |
| 20260505032241 | 65 | 153 | 0.0 | 0.0 | 0.00 | 0.00 | 0.00 | 56 | 1010.6 |
| 20260505031739 | 65 | 154 | 0.0 | 0.0 | 0.00 | 0.00 | 0.00 | 56 | 1010.9 |
| 20260505031235 | 65 | 160 | 0.0 | 0.0 | 0.00 | 0.00 | 0.00 | 55 | 1010.8 |
| 20260505030732 | 65 | 161 | 0.0 | 0.0 | 0.00 | 0.00 | 0.00 | 55 | 1011.0 |
| 20260505030228 | 65 | 168 | 0.9 | 0.9 | 0.00 | 0.00 | 0.00 | 55 | 1011.0 |
| 20260505025724 | 64 | 161 | 0.0 | 0.0 | 0.00 | 0.00 | 0.00 | 55 | 1010.9 |
| 20260505025223 | 64 | 161 | 0.0 | 0.0 | 0.00 | 0.00 | 0.00 | 54 | 1010.6 |
| 20260505024721 | 65 | 165 | 0.0 | 0.0 | 0.00 | 0.00 | 0.00 | 53 | 1010.9 |
| 20260505024217 | 65 | 165 | 0.0 | 0.0 | 0.00 | 0.00 | 0.00 | 52 | 1010.7 |
| 20260505023715 | 66 | 165 | 0.0 | 0.0 | 0.00 | 0.00 | 0.00 | 50 | 1010.9 |
| 20260505023212 | 67 | 165 | 0.0 | 0.0 | 0.00 | 0.00 | 0.00 | 49 | 1010.7 |
| 20260505022709 | 67 | 165 | 0.0 | 0.0 | 0.00 | 0.00 | 0.00 | 49 | 1010.9 |
| 20260505022206 | 67 | 167 | 0.9 | 0.9 | 0.00 | 0.00 | 0.00 | 48 | 1010.6 |
| 20260505021703 | 67 | 151 | 0.0 | 0.0 | 0.00 | 0.00 | 0.00 | 48 | 1010.7 |
| 20260505021200 | 67 | 158 | 0.0 | 0.0 | 0.00 | 0.00 | 0.00 | 49 | 1010.7 |
| 20260505020655 | 67 | 160 | 0.0 | 0.9 | 0.00 | 0.00 | 0.00 | 49 | 1010.6 |
| 20260505020151 | 67 | 149 | 0.9 | 0.9 | 0.00 | 0.00 | 0.00 | 48 | 1010.5 |
| 20260505015649 | 67 | 161 | 0.0 | 0.0 | 0.00 | 0.00 | 0.00 | 49 | 1010.6 |
| 20260505015145 | 68 | 172 | 0.0 | 0.0 | 0.00 | 0.00 | 0.00 | 48 | 1010.8 |
| 20260505014642 | 68 | 107 | 0.0 | 0.0 | 0.00 | 0.00 | 0.00 | 49 | 1010.4 |
| 20260505014139 | 68 | 120 | 1.7 | 1.7 | 0.00 | 0.00 | 0.00 | 48 | 1010.6 |
| 20260505013636 | 68 | 129 | 0.0 | 0.0 | 0.00 | 0.00 | 0.00 | 49 | 1010.5 |
| 20260505013133 | 68 | 133 | 0.9 | 1.7 | 0.00 | 0.00 | 0.00 | 49 | 1010.2 |
| 20260505012632 | 69 | 141 | 1.7 | 2.6 | 0.00 | 0.00 | 0.00 | 48 | 1010.5 |
| 20260505012128 | 69 | 139 | 0.9 | 0.9 | 0.00 | 0.00 | 0.00 | 47 | 1010.4 |
| 20260505011624 | 69 | 110 | 0.9 | 0.9 | 0.00 | 0.00 | 0.00 | 47 | 1010.0 |
| 20260505011122 | 69 | 134 | 0.0 | 0.0 | 0.00 | 0.00 | 0.00 | 47 | 1010.3 |
| 20260505010617 | 70 | 135 | 0.0 | 0.9 | 0.00 | 0.00 | 0.00 | 46 | 1010.2 |
| 20260505010114 | 70 | 128 | 0.0 | 0.0 | 0.00 | 0.00 | 0.00 | 46 | 1010.3 |
| 20260505005610 | 70 | 110 | 0.0 | 0.0 | 0.00 | 0.00 | 0.00 | 45 | 1010.3 |
| 20260505005107 | 70 | 125 | 0.0 | 0.0 | 0.00 | 0.00 | 0.00 | 44 | 1010.3 |
| 20260505004604 | 70 | 147 | 0.0 | 0.0 | 0.00 | 0.00 | 0.00 | 43 | 1010.2 |
| 20260505004101 | 71 | 137 | 0.0 | 0.0 | 0.00 | 0.00 | 0.00 | 42 | 1010.1 |
| 20260505003558 | 71 | 79 | 0.0 | 0.0 | 0.00 | 0.00 | 0.00 | 42 | 1010.0 |
| 20260505003055 | 71 | 106 | 0.0 | 0.9 | 0.00 | 0.00 | 0.00 | 42 | 1009.9 |
| 20260505002555 | 71 | 139 | 0.0 | 0.9 | 0.00 | 0.00 | 0.00 | 41 | 1010.1 |
| 20260505002049 | 72 | 102 | 0.0 | 0.0 | 0.00 | 0.00 | 0.00 | 40 | 1009.7 |
| 20260505001546 | 72 | 108 | 0.9 | 0.9 | 0.00 | 0.00 | 0.00 | 39 | 1009.7 |
| 20260505001043 | 72 | 164 | 2.6 | 2.6 | 0.00 | 0.00 | 0.00 | 40 | 1009.9 |
| 20260505000541 | 72 | 125 | 0.9 | 0.9 | 0.00 | 0.00 | 0.00 | 40 | 1010.0 |
| 20260505000038 | 72 | 157 | 4.3 | 6.1 | 0.00 | 0.00 | 0.00 | 39 | 1009.8 |
| 20260504235535 | 73 | 142 | 0.0 | 0.0 | 0.00 | 0.00 | 0.00 | 39 | 1009.9 |
| 20260504235031 | 73 | 210 | 1.7 | 2.6 | 0.00 | 0.00 | 0.00 | 39 | 1009.9 |
| 20260504234528 | 73 | 152 | 1.7 | 1.7 | 0.00 | 0.00 | 0.00 | 38 | 1009.6 |
| 20260504234025 | 73 | 100 | 0.0 | 0.0 | 0.00 | 0.00 | 0.00 | 39 | 1009.5 |
| 20260504233521 | 73 | 108 | 0.0 | 0.9 | 0.00 | 0.00 | 0.00 | 39 | 1009.6 |
| 20260504233018 | 73 | 144 | 0.9 | 0.9 | 0.00 | 0.00 | 0.00 | 38 | 1009.9 |
| 20260504232515 | 74 | 239 | 0.9 | 1.7 | 0.00 | 0.00 | 0.00 | 38 | 1009.7 |
| 20260504232012 | 73 | 99 | 3.5 | 6.1 | 0.00 | 0.00 | 0.00 | 37 | 1009.6 |
| 20260504231509 | 74 | 198 | 1.7 | 1.7 | 0.00 | 0.00 | 0.00 | 37 | 1009.6 |
| 20260504231005 | 74 | 134 | 2.6 | 4.3 | 0.00 | 0.00 | 0.00 | 36 | 1009.7 |
| 20260504230501 | 74 | 120 | 0.9 | 0.9 | 0.00 | 0.00 | 0.00 | 36 | 1009.6 |
| 20260504230000 | 75 | 261 | 1.7 | 2.6 | 0.00 | 0.00 | 0.00 | 36 | 1009.5 |
| 20260504225457 | 75 | 158 | 0.9 | 1.7 | 0.00 | 0.00 | 0.00 | 35 | 1009.7 |
| 20260504224954 | 75 | 296 | 0.9 | 1.7 | 0.00 | 0.00 | 0.00 | 35 | 1009.5 |
| 20260504224450 | 75 | 133 | 2.6 | 5.2 | 0.00 | 0.00 | 0.00 | 35 | 1009.5 |
| 20260504223947 | 75 | 202 | 4.3 | 8.7 | 0.00 | 0.00 | 0.00 | 34 | 1009.5 |
| 20260504223444 | 75 | 190 | 4.3 | 6.1 | 0.00 | 0.00 | 0.00 | 34 | 1009.5 |
| 20260504222939 | 76 | 217 | 2.6 | 4.3 | 0.00 | 0.00 | 0.00 | 34 | 1009.6 |
| 20260504222437 | 76 | 137 | 0.9 | 0.9 | 0.00 | 0.00 | 0.00 | 34 | 1009.6 |
| 20260504221935 | 76 | 217 | 6.1 | 8.7 | 0.00 | 0.00 | 0.00 | 34 | 1009.4 |
| 20260504221431 | 76 | 108 | 0.9 | 1.7 | 0.00 | 0.00 | 0.00 | 34 | 1009.4 |
| 20260504220928 | 76 | 148 | 2.6 | 2.6 | 0.00 | 0.00 | 0.00 | 34 | 1009.4 |
| 20260504220425 | 76 | 192 | 0.0 | 0.9 | 0.00 | 0.00 | 0.00 | 35 | 1009.5 |
| 20260504215922 | 76 | 147 | 0.9 | 0.9 | 0.00 | 0.00 | 0.00 | 34 | 1009.5 |
| 20260504215419 | 77 | 259 | 3.5 | 6.1 | 0.00 | 0.00 | 0.00 | 34 | 1009.7 |
| 20260504214915 | 77 | 139 | 1.7 | 1.7 | 0.00 | 0.00 | 0.00 | 34 | 1009.6 |
| 20260504214412 | 77 | 288 | 1.7 | 2.6 | 0.00 | 0.00 | 0.00 | 33 | 1009.4 |
| 20260504213909 | 77 | 240 | 2.6 | 2.6 | 0.00 | 0.00 | 0.00 | 33 | 1009.6 |
| 20260504213404 | 76 | 229 | 0.9 | 1.7 | 0.00 | 0.00 | 0.00 | 33 | 1009.6 |
| 20260504212902 | 76 | 265 | 1.7 | 2.6 | 0.00 | 0.00 | 0.00 | 34 | 1009.7 |
| 20260504212358 | 77 | 167 | 5.2 | 8.7 | 0.00 | 0.00 | 0.00 | 33 | 1009.6 |
| 20260504211856 | 77 | 124 | 0.9 | 1.7 | 0.00 | 0.00 | 0.00 | 34 | 1009.7 |
| 20260504211352 | 77 | 118 | 1.7 | 2.6 | 0.00 | 0.00 | 0.00 | 33 | 1009.5 |
| 20260504210849 | 78 | 144 | 2.6 | 4.3 | 0.00 | 0.00 | 0.00 | 32 | 1009.8 |
| 20260504210346 | 77 | 157 | 1.7 | 1.7 | 0.00 | 0.00 | 0.00 | 33 | 1009.4 |
| 20260504205843 | 77 | 152 | 2.6 | 4.3 | 0.00 | 0.00 | 0.00 | 32 | 1009.5 |
| 20260504205341 | 78 | 201 | 6.1 | 7.0 | 0.00 | 0.00 | 0.00 | 31 | 1009.6 |
| 20260504204839 | 78 | 142 | 0.0 | 0.9 | 0.00 | 0.00 | 0.00 | 32 | 1009.6 |
| 20260504204337 | 77 | 82 | 0.9 | 0.9 | 0.00 | 0.00 | 0.00 | 31 | 1009.7 |
| 20260504203836 | 79 | 188 | 0.9 | 1.7 | 0.00 | 0.00 | 0.00 | 30 | 1009.6 |
| 20260504203333 | 78 | 120 | 0.9 | 0.9 | 0.00 | 0.00 | 0.00 | 31 | 1009.6 |
| 20260504202828 | 79 | 174 | 0.9 | 0.9 | 0.00 | 0.00 | 0.00 | 29 | 1009.6 |
| 20260504202326 | 80 | 107 | 1.7 | 2.6 | 0.00 | 0.00 | 0.00 | 30 | 1009.8 |
| 20260504201822 | 79 | 117 | 0.0 | 0.0 | 0.00 | 0.00 | 0.00 | 31 | 1009.8 |
| 20260504201320 | 79 | 214 | 2.6 | 4.3 | 0.00 | 0.00 | 0.00 | 29 | 1009.9 |
| 20260504200817 | 79 | 164 | 0.9 | 0.9 | 0.00 | 0.00 | 0.00 | 30 | 1009.9 |
| 20260504200314 | 79 | 110 | 0.9 | 1.7 | 0.00 | 0.00 | 0.00 | 30 | 1010.1 |
| 20260504195810 | 79 | 262 | 3.5 | 4.3 | 0.00 | 0.00 | 0.00 | 28 | 1010.4 |
| 20260504195306 | 80 | 226 | 0.9 | 1.7 | 0.00 | 0.00 | 0.00 | 28 | 1010.3 |
| 20260504194803 | 78 | 192 | 1.7 | 2.6 | 0.00 | 0.00 | 0.00 | 31 | 1010.2 |
| 20260504194259 | 77 | 222 | 4.3 | 6.1 | 0.00 | 0.00 | 0.00 | 30 | 1010.2 |
| 20260504193755 | 79 | 248 | 2.6 | 4.3 | 0.00 | 0.00 | 0.00 | 29 | 1010.3 |
| 20260504193253 | 78 | 199 | 3.5 | 6.1 | 0.00 | 0.00 | 0.00 | 30 | 1010.4 |
| 20260504192751 | 79 | 238 | 1.7 | 4.3 | 0.00 | 0.00 | 0.00 | 29 | 1010.6 |
| 20260504192249 | 79 | 88 | 0.9 | 0.9 | 0.00 | 0.00 | 0.00 | 29 | 1010.5 |
| 20260504191747 | 79 | 271 | 3.5 | 4.3 | 0.00 | 0.00 | 0.00 | 30 | 1010.7 |
| 20260504191244 | 78 | 279 | 1.7 | 4.3 | 0.00 | 0.00 | 0.00 | 30 | 1010.7 |
| 20260504190739 | 78 | 85 | 0.9 | 1.7 | 0.00 | 0.00 | 0.00 | 31 | 1010.9 |
| 20260504190236 | 78 | 123 | 0.9 | 0.9 | 0.00 | 0.00 | 0.00 | 30 | 1011.0 |
| 20260504185732 | 78 | 81 | 1.7 | 2.6 | 0.00 | 0.00 | 0.00 | 31 | 1010.9 |
| 20260504185229 | 77 | 107 | 2.6 | 5.2 | 0.00 | 0.00 | 0.00 | 31 | 1011.2 |
| 20260504184725 | 77 | 206 | 1.7 | 1.7 | 0.00 | 0.00 | 0.00 | 31 | 1011.4 |
| 20260504184221 | 77 | 122 | 2.6 | 4.3 | 0.00 | 0.00 | 0.00 | 32 | 1011.5 |
| 20260504183717 | 75 | 108 | 0.9 | 1.7 | 0.00 | 0.00 | 0.00 | 32 | 1011.4 |
| 20260504183214 | 77 | 222 | 5.2 | 6.1 | 0.00 | 0.00 | 0.00 | 30 | 1011.5 |
| 20260504182713 | 77 | 133 | 1.7 | 2.6 | 0.00 | 0.00 | 0.00 | 31 | 1011.7 |
| 20260504182209 | 77 | 130 | 0.9 | 0.9 | 0.00 | 0.00 | 0.00 | 33 | 1011.6 |
| 20260504181707 | 77 | 134 | 0.9 | 0.9 | 0.00 | 0.00 | 0.00 | 32 | 1011.9 |
| 20260504181204 | 77 | 105 | 1.7 | 1.7 | 0.00 | 0.00 | 0.00 | 32 | 1011.9 |
| 20260504180703 | 77 | 272 | 0.9 | 4.3 | 0.00 | 0.00 | 0.00 | 33 | 1012.0 |
| 20260504180202 | 77 | 146 | 0.9 | 1.7 | 0.00 | 0.00 | 0.00 | 33 | 1012.0 |
| 20260504175658 | 76 | 145 | 0.0 | 0.9 | 0.00 | 0.00 | 0.00 | 33 | 1012.0 |
| 20260504175155 | 76 | 170 | 0.9 | 0.9 | 0.00 | 0.00 | 0.00 | 33 | 1012.1 |
| 20260504174653 | 74 | 170 | 1.7 | 1.7 | 0.00 | 0.00 | 0.00 | 32 | 1012.3 |
| 20260504174150 | 75 | 305 | 1.7 | 1.7 | 0.00 | 0.00 | 0.00 | 33 | 1012.3 |
| 20260504173647 | 75 | 205 | 3.5 | 5.2 | 0.00 | 0.00 | 0.00 | 34 | 1012.1 |
| 20260504173144 | 74 | 199 | 3.5 | 5.2 | 0.00 | 0.00 | 0.00 | 33 | 1012.1 |
| 20260504172641 | 75 | 224 | 1.7 | 2.6 | 0.00 | 0.00 | 0.00 | 34 | 1012.6 |
| 20260504172137 | 73 | 241 | 1.7 | 2.6 | 0.00 | 0.00 | 0.00 | 33 | 1012.7 |
| 20260504171633 | 74 | 150 | 2.6 | 2.6 | 0.00 | 0.00 | 0.00 | 34 | 1012.5 |
| 20260504171131 | 73 | 231 | 0.9 | 1.7 | 0.00 | 0.00 | 0.00 | 34 | 1012.7 |
| 20260504170627 | 73 | 192 | 4.3 | 7.0 | 0.00 | 0.00 | 0.00 | 34 | 1012.7 |
| 20260504170125 | 74 | 243 | 2.6 | 4.3 | 0.00 | 0.00 | 0.00 | 35 | 1013.0 |
| 20260504151010 | 70 | 238 | 1.7 | 2.6 | 0.00 | 0.00 | 0.00 | 37 | 1014.3 |
| 20260504150508 | 70 | 221 | 2.6 | 2.6 | 0.00 | 0.00 | 0.00 | 35 | 1014.1 |
| 20260504140933 | 65 | 167 | 0.9 | 0.9 | 0.00 | 0.00 | 0.00 | 42 | 1014.1 |
| 20260504140430 | 64 | 101 | 0.0 | 0.9 | 0.00 | 0.00 | 0.00 | 43 | 1014.2 |
| 20260504130355 | 58 | 212 | 2.6 | 2.6 | 0.00 | 0.00 | 0.00 | 49 | 1015.0 |
| 20260504120318 | 53 | 127 | 1.7 | 1.7 | 0.00 | 0.00 | 0.00 | 61 | 1015.1 |
| 20260504110242 | 50 | 92 | 0.0 | 0.0 | 0.00 | 0.00 | 0.00 | 67 | 1015.6 |
| 20260504100200 | 50 | 111 | 0.0 | 0.0 | 0.00 | 0.00 | 0.00 | 61 | 1015.3 |
| 20260504090122 | 51 | 156 | 1.7 | 1.7 | 0.00 | 0.00 | 0.00 | 62 | 1015.3 |
| 20260504081552 | 51 | 119 | 0.0 | 0.0 | 0.00 | 0.00 | 0.00 | 63 | 1015.5 |
| 20260504081048 | 51 | 123 | 0.0 | 0.0 | 0.00 | 0.00 | 0.00 | 62 | 1015.5 |
| 20260504080545 | 51 | 118 | 0.0 | 0.0 | 0.00 | 0.00 | 0.00 | 62 | 1015.5 |